Location: ????????
(55.1591°N, 39.1782°E)
Time: 14:28:08
(UTC+00:00)

Cosmos 1743 - Pass Details

Date: 14 April 2024
Orbit: 475 x 491 km, 82.5° (Epoch: 24 May)

Event Time Altitude Azimuth Distance (km) Brightness Sun altitude
Rises 00:17:58 0° 337° (NNW) 2,596 6.6 -15.8°
Reaches altitude 10° 00:20:29 10° 321° (NW) 1,705 5.4 -15.5°
Enters shadow 00:23:14 20° 273° (W) 1,201 4.2 -15.3°
